datetime,power release
1963-10-01,175.002546
1963-10-02,115.001674
1963-10-03,120.001752
1963-10-04,120.001752
1963-10-05,120.001752
1963-10-06,110.001603
1963-10-07,110.001603
1963-10-08,90.0013122
1963-10-09,130.001901
1963-10-10,130.001901
1963-10-11,120.001752
1963-10-12,110.001603
1963-10-13,110.001603
1963-10-14,130.001901
1963-10-15,130.001901
1963-10-16,125.001823
1963-10-17,120.001752
1963-10-18,100.001461
1963-10-19,125.001823
1963-10-20,125.001823
1963-10-21,125.001823
1963-10-22,125.001823
1963-10-23,156.002272
1963-10-24,135.001964
1963-10-25,137.001999
1963-10-26,140.002043
1963-10-27,140.002043
1963-10-28,143.002087
1963-10-29,125.001823
1963-10-30,140.002043
1963-10-31,197.002879
1963-11-01,191.002791
1963-11-02,189.002756
1963-11-03,191.002791
1963-11-04,200.002923
1963-11-05,197.002879
1963-11-06,197.002879
1963-11-07,211.003074
1963-11-08,707.010297
1963-11-09,862.01256
1963-11-10,220.003206
1963-11-11,199.002898
1963-11-12,172.002502
1963-11-13,176.002571
1963-11-14,209.003055
1963-11-15,310.004526
1963-11-16,364.005318
1963-11-17,366.005337
1963-11-18,260.003803
1963-11-19,270.003929
1963-11-20,330.004809
1963-11-21,383.005576
1963-11-22,376.005494
1963-11-23,342.004985
1963-11-24,340.004966
1963-11-25,340.004966
1963-11-26,526.007693
1963-11-27,327.004765
1963-11-28,286.004174
1963-11-29,288.004193
1963-11-30,322.004702
1963-12-01,336.004897
1963-12-02,319.004658
1963-12-03,397.005802
1963-12-04,422.006148
1963-12-05,428.006236
1963-12-06,420.006129
1963-12-07,428.006236
1963-12-08,406.005934
1963-12-09,560.008172
1963-12-10,696.010146
1963-12-11,901.013162
1963-12-12,944.013742
1963-12-13,1060.01546
1963-12-14,1100.01609
1963-12-15,838.012208
1963-12-16,830.012131
1963-12-17,826.012032
1963-12-18,765.011188
1963-12-19,818.011955
1963-12-20,871.012722
1963-12-21,854.012483
1963-12-22,853.012458
1963-12-23,867.012623
1963-12-24,888.012961
1963-12-25,902.013126
1963-12-26,887.012936
1963-12-27,760.011064
1963-12-28,894.013049
1963-12-29,899.013112
1963-12-30,975.014206
1963-12-31,890.013011
1964-01-01,851.012408
1964-01-02,852.012433
1964-01-03,850.012384
1964-01-04,858.012521
1964-01-05,847.01237
1964-01-06,980.01427
1964-01-07,1010.01471
1964-01-08,1010.01471
1964-01-09,1010.01471
1964-01-10,1030.01502
1964-01-11,1020.0149
1964-01-12,1010.01471
1964-01-13,982.014319
1964-01-14,1000.01458
1964-01-15,980.01427
1964-01-16,992.014445
1964-01-17,1040.01521
1964-01-18,1020.0149
1964-01-19,981.014294
1964-01-20,1000.01458
1964-01-21,902.013126
1964-01-22,875.01276
1964-01-23,877.01281
1964-01-24,882.012873
1964-01-25,892.012999
1964-01-26,879.012799
1964-01-27,938.013654
1964-01-28,968.014094
1964-01-29,950.01383
1964-01-30,961.014042
1964-01-31,965.01408
1964-02-01,961.014042
1964-02-02,950.01383
1964-02-03,968.014094
1964-02-04,1010.01471
1964-02-05,1010.01471
1964-02-06,958.013967
1964-02-07,972.014193
1964-02-08,949.013866
1964-02-09,925.013514
1964-02-10,969.014118
1964-02-11,1230.01798
1964-02-12,1190.01735
1964-02-13,925.013514
1964-02-14,906.013225
1964-02-15,945.013766
1964-02-16,912.013313
1964-02-17,982.014319
1964-02-18,997.01457
1964-02-19,776.011339
1964-02-20,956.013918
1964-02-21,970.014143
1964-02-22,974.014182
1964-02-23,967.01413
1964-02-24,978.014281
1964-02-25,931.013602
1964-02-26,920.01339
1964-02-27,979.014306
1964-02-28,914.013302
1964-02-29,899.013112
1964-03-01,583.008499
1964-03-02,600.008738
1964-03-03,615.008988
1964-03-04,623.009065
1964-03-05,606.008826
1964-03-06,606.008826
1964-03-07,600.008738
1964-03-08,612.008914
1964-03-09,596.0087
1964-03-10,613.008939
1964-03-11,640.009365
1964-03-12,614.008964
1964-03-13,619.009027
1964-03-14,602.008788
1964-03-15,607.008851
1964-03-16,618.009002
1964-03-17,592.008661
1964-03-18,585.008548
1964-03-19,601.008763
1964-03-20,598.008749
1964-03-21,592.008661
1964-03-22,587.008537
1964-03-23,602.008788
1964-03-24,602.008788
1964-03-25,608.008876
1964-03-26,591.008636
1964-03-27,590.008612
1964-03-28,557.008097
1964-03-29,558.008122
1964-03-30,562.008221
1964-03-31,578.008436
1964-04-01,593.008625
1964-04-02,590.008612
1964-04-03,585.008548
1964-04-04,557.008097
1964-04-05,556.008133
1964-04-06,569.008273
1964-04-07,570.008298
1964-04-08,587.008537
1964-04-09,598.008749
1964-04-10,576.008386
1964-04-11,562.008221
1964-04-12,573.008372
1964-04-13,589.008587
1964-04-14,590.008612
1964-04-15,580.008485
1964-04-16,562.008221
1964-04-17,564.00821
1964-04-18,720.010498
1964-04-19,677.009857
1964-04-20,605.008801
1964-04-21,480.007009
1964-04-22,468.006833
1964-04-23,547.007971
1964-04-24,569.008273
1964-04-25,595.008675
1964-04-26,608.008876
1964-04-27,667.009731
1964-04-28,639.00934
1964-04-29,649.009467
1964-04-30,589.008587
1964-05-01,615.008988
1964-05-02,836.012219
1964-05-03,814.011856
1964-05-04,765.011188
1964-05-05,762.011113
1964-05-06,855.012447
1964-05-07,913.013338
1964-05-08,1090.01584
1964-05-09,1200.01748
1964-05-10,987.014382
1964-05-11,1260.01836
1964-05-12,1280.01873
1964-05-13,1250.01823
1964-05-14,1260.01836
1964-05-15,1210.0176
1964-05-16,1170.0171
1964-05-17,1120.01634
1964-05-18,1570.02288
1964-05-19,2100.03067
1964-05-20,2070.0303
1964-05-21,2090.03055
1964-05-22,2100.03067
1964-05-23,1970.02879
1964-05-24,1920.02803
1964-05-25,2150.0313
1964-05-26,2070.0303
1964-05-27,2190.03206
1964-05-28,2150.0313
1964-05-29,2140.03118
1964-05-30,2010.02929
1964-05-31,1880.02741
1964-06-01,1840.02678
1964-06-02,1890.02753
1964-06-03,1830.02665
1964-06-04,1580.02301
1964-06-05,1650.02401
1964-06-06,1150.01672
1964-06-07,991.014482
1964-06-08,1630.02376
1964-06-09,1640.02389
1964-06-10,1640.02389
1964-06-11,1520.02213
1964-06-12,1310.01911
1964-06-13,1150.01672
1964-06-14,1020.0149
1964-06-15,1260.01836
1964-06-16,1270.01848
1964-06-17,1230.01798
1964-06-18,1280.01873
1964-06-19,1290.01886
1964-06-20,1140.0166
1964-06-21,1170.0171
1964-06-22,1290.01886
1964-06-23,1380.02012
1964-06-24,1370.01999
1964-06-25,1380.02012
1964-06-26,1380.02012
1964-06-27,1740.02539
1964-06-28,1620.02363
1964-06-29,1820.02653
1964-06-30,1920.02803
1964-07-01,1880.02741
1964-07-02,1810.0264
1964-07-03,1820.02653
1964-07-04,1610.02351
1964-07-05,1620.02363
1964-07-06,2100.03067
1964-07-07,2540.03696
1964-07-08,2600.03797
1964-07-09,2650.0386
1964-07-10,2600.03797
1964-07-11,2390.03482
1964-07-12,2210.03231
1964-07-13,3160.04601
1964-07-14,3390.04941
1964-07-15,3020.044
1964-07-16,2670.03885
1964-07-17,2330.03407
1964-07-18,2530.03684
1964-07-19,1860.02715
1964-07-20,2140.03118
1964-07-21,2180.03168
1964-07-22,2320.03394
1964-07-23,3460.05054
1964-07-24,3380.04928
1964-07-25,2000.02917
1964-07-26,1820.02653
1964-07-27,2910.04237
1964-07-28,2820.04123
1964-07-29,2640.03847
1964-07-30,2580.03771
1964-07-31,2640.03847
1964-08-01,2600.03797
1964-08-02,1840.02678
1964-08-03,2490.03633
1964-08-04,2450.03583
1964-08-05,2420.0352
1964-08-06,2380.0347
1964-08-07,2700.03947
1964-08-08,2460.03595
1964-08-09,1660.02426
1964-08-10,2290.03332
1964-08-11,2340.03419
1964-08-12,2440.0357
1964-08-13,2270.03306
1964-08-14,2380.0347
1964-08-15,2350.03432
1964-08-16,2020.02942
1964-08-17,1790.02615
1964-08-18,1570.02288
1964-08-19,1570.02288
1964-08-20,1840.02678
1964-08-21,1810.0264
1964-08-22,1840.02678
1964-08-23,1510.022
1964-08-24,1900.02766
1964-08-25,1680.02451
1964-08-26,1670.02439
1964-08-27,1690.02464
1964-08-28,1630.02376
1964-08-29,1560.02275
1964-08-30,817.01193
1964-08-31,1770.02577
1964-09-01,1910.02791
1964-09-02,1850.02703
1964-09-03,1940.02829
1964-09-04,1940.02829
1964-09-05,958.013967
1964-09-06,416.00606
1964-09-07,369.005381
1964-09-08,1820.02653
1964-09-09,2160.03143
1964-09-10,2090.03055
1964-09-11,2060.03005
1964-09-12,1450.02112
1964-09-13,892.012999
1964-09-14,1950.02841
1964-09-15,2040.02979
1964-09-16,2050.02992
1964-09-17,2030.02967
1964-09-18,2200.03218
1964-09-19,2110.0308
1964-09-20,2050.02992
1964-09-21,2780.04048
1964-09-22,2800.04073
1964-09-23,2900.04224
1964-09-24,3100.04526
1964-09-25,3190.04664
1964-09-26,3470.05066
1964-09-27,2830.04136
1964-09-28,3550.05167
1964-09-29,3510.05117
1964-09-30,3570.05217
1964-10-01,3510.05117
1964-10-02,3580.0523
1964-10-03,2220.03243
1964-10-04,2050.02992
1964-10-05,2050.02992
1964-10-06,2400.03495
1964-10-07,2460.03595
1964-10-08,2500.03646
1964-10-09,2500.03646
1964-10-10,2340.03419
1964-10-11,2200.03218
1964-10-12,2610.03809
1964-10-13,2620.03822
1964-10-14,2750.0401
1964-10-15,2760.04023
1964-10-16,2700.03947
1964-10-17,2420.0352
1964-10-18,2500.03646
1964-10-19,2740.03998
1964-10-20,2770.04036
1964-10-21,2510.03658
1964-10-22,2700.03947
1964-10-23,2760.04023
1964-10-24,2650.0386
1964-10-25,2380.0347
1964-10-26,2670.03885
1964-10-27,2460.03595
1964-10-28,2450.03583
1964-10-29,2410.03508
1964-10-30,2770.04036
1964-10-31,2620.03822
1964-11-01,2440.0357
1964-11-02,2820.04123
1964-11-03,2260.03294
1964-11-04,2150.0313
1964-11-05,2130.03105
1964-11-06,2160.03143
1964-11-07,2100.03067
1964-11-08,1940.02829
1964-11-09,2080.03042
1964-11-10,2090.03055
1964-11-11,2040.02979
1964-11-12,2180.03168
1964-11-13,2220.03243
1964-11-14,2830.04136
1964-11-15,2680.03898
1964-11-16,2510.03658
1964-11-17,2340.03419
1964-11-18,2700.03947
1964-11-19,2520.03671
1964-11-20,2470.03608
1964-11-21,2810.04111
1964-11-22,2620.03822
1964-11-23,2350.03432
1964-11-24,2340.03419
1964-11-25,2280.03319
1964-11-26,2210.03231
1964-11-27,2250.03281
1964-11-28,2270.03306
1964-11-29,2070.0303
1964-11-30,2430.03533
1964-12-01,2400.03495
1964-12-02,2460.03595
1964-12-03,2880.04199
1964-12-04,2970.04337
1964-12-05,3350.0489
1964-12-06,3190.04664
1964-12-07,3540.05155
1964-12-08,3480.05079
1964-12-09,3430.04991
1964-12-10,3550.05167
1964-12-11,2300.03344
1964-12-12,2160.03143
1964-12-13,2470.03608
1964-12-14,3530.05142
1964-12-15,3350.0489
1964-12-16,3190.04664
1964-12-17,3220.04702
1964-12-18,3490.05092
1964-12-19,3360.04903
1964-12-20,3070.04488
1964-12-21,3310.0484
1964-12-22,3060.04475
1964-12-23,3050.04438
1964-12-24,3330.04865
1964-12-25,2840.04149
1964-12-26,3060.04475
1964-12-27,3110.04538
1964-12-28,3630.05293
1964-12-29,3680.05356
1964-12-30,3690.05393
1964-12-31,3540.05155
1965-01-01,3120.04551
1965-01-02,3310.0484
1965-01-03,3100.04526
1965-01-04,3600.05255
1965-01-05,3560.05204
1965-01-06,3280.04777
1965-01-07,3550.05167
1965-01-08,3580.0523
1965-01-09,3560.05204
1965-01-10,3170.04614
1965-01-11,3660.05331
1965-01-12,3030.04413
1965-01-13,2930.04262
1965-01-14,1440.021
1965-01-15,1800.02627
1965-01-16,3970.05795
1965-01-17,3260.04752
1965-01-18,4130.06022
1965-01-19,4110.05997
1965-01-20,4050.05896
1965-01-21,4080.05959
1965-01-22,4060.05934
1965-01-23,3830.05594
1965-01-24,3440.05028
1965-01-25,3840.05607
1965-01-26,4080.05959
1965-01-27,4220.0616
1965-01-28,4030.05871
1965-01-29,3940.05758
1965-01-30,3610.05268
1965-01-31,3340.04878
1965-02-01,3940.05758
1965-02-02,4150.06072
1965-02-03,3930.0572
1965-02-04,4060.05934
1965-02-05,4100.05984
1965-02-06,4070.05946
1965-02-07,3750.05469
1965-02-08,4140.06059
1965-02-09,4140.06059
1965-02-10,4130.06022
1965-02-11,4040.05884
1965-02-12,3990.05821
1965-02-13,3940.05758
1965-02-14,3750.05469
1965-02-15,4140.06059
1965-02-16,4260.06211
1965-02-17,4020.05859
1965-02-18,3830.05594
1965-02-19,4050.05896
1965-02-20,3910.05695
1965-02-21,3580.0523
1965-02-22,3810.05569
1965-02-23,4070.05946
1965-02-24,2930.04262
1965-02-25,2220.03243
1965-02-26,3310.0484
1965-02-27,3770.05494
1965-02-28,3440.05028
1965-03-01,3160.04601
1965-03-02,3440.05028
1965-03-03,3300.04803
1965-03-04,3120.04551
1965-03-05,3080.04501
1965-03-06,2860.04174
1965-03-07,2520.03671
1965-03-08,3340.04878
1965-03-09,4060.05934
1965-03-10,4100.05984
1965-03-11,4090.05971
1965-03-12,4100.05984
1965-03-13,4060.05934
1965-03-14,3480.05079
1965-03-15,3970.05795
1965-03-16,4080.05959
1965-03-17,3870.05645
1965-03-18,3860.05632
1965-03-19,4060.05934
1965-03-20,4050.05896
1965-03-21,4060.05934
1965-03-22,4060.05934
1965-03-23,4070.05946
1965-03-24,4070.05946
1965-03-25,4090.05971
1965-03-26,4110.05997
1965-03-27,4060.05934
1965-03-28,3900.05683
1965-03-29,4070.05946
1965-03-30,4080.05959
1965-03-31,4080.05959
1965-04-01,3380.04928
1965-04-02,4060.05934
1965-04-03,3940.05758
1965-04-04,4080.05959
1965-04-05,4070.05946
1965-04-06,4040.05884
1965-04-07,3880.05657
1965-04-08,3730.05444
1965-04-09,3430.04991
1965-04-10,2610.03809
1965-04-11,3180.04627
1965-04-12,3510.05117
1965-04-13,3780.05507
1965-04-14,3770.05494
1965-04-15,3790.05519
1965-04-16,3430.04991
1965-04-17,3400.04953
1965-04-18,3540.05155
1965-04-19,3560.05204
1965-04-20,3560.05204
1965-04-21,3510.05117
1965-04-22,3530.05142
1965-04-23,3570.05217
1965-04-24,3580.0523
1965-04-25,3620.0528
1965-04-26,3500.05104
1965-04-27,2100.03067
1965-04-28,1910.02791
1965-04-29,1900.02766
1965-04-30,2650.0386
1965-05-01,880.012823
1965-05-02,845.01232
1965-05-03,865.012634
1965-05-04,1110.01622
1965-05-05,1250.01823
1965-05-06,1260.01836
1965-05-07,2280.03319
1965-05-08,885.012887
1965-05-09,584.008524
1965-05-10,830.012131
1965-05-11,533.007745
1965-05-12,496.007223
1965-05-13,545.007921
1965-05-14,480.007009
1965-05-15,460.006695
1965-05-16,1680.02451
1965-05-17,666.009706
1965-05-18,998.014533
1965-05-19,1830.02665
1965-05-20,1600.02338
1965-05-21,1430.02087
1965-05-22,1570.02288
1965-05-23,1620.02363
1965-05-24,1390.02024
1965-05-25,1370.01999
1965-05-26,1380.02012
1965-05-27,1420.02074
1965-05-28,1150.01672
1965-05-29,1060.01546
1965-05-30,520.007605
1965-05-31,445.006506
1965-06-01,476.00694
1965-06-02,695.010121
1965-06-03,690.010058
1965-06-04,685.009995
1965-06-05,960.014017
1965-06-06,850.012384
1965-06-07,1830.02665
1965-06-08,2580.03771
1965-06-09,2300.03344
1965-06-10,2590.03784
1965-06-11,1870.02728
1965-06-12,1260.01836
1965-06-13,1310.01911
1965-06-14,1660.02426
1965-06-15,1740.02539
1965-06-16,2180.03168
1965-06-17,1560.02275
1965-06-18,1710.02489
1965-06-19,2080.03042
1965-06-20,464.006764
1965-06-21,1390.02024
1965-06-22,1940.02829
1965-06-23,2180.03168
1965-06-24,2220.03243
1965-06-25,1860.02715
1965-06-26,765.011188
1965-06-27,940.013703
1965-06-28,720.010498
1965-06-29,705.010308
1965-06-30,950.01383
1965-07-01,529.007707
1965-07-02,476.00694
1965-07-03,425.006192
1965-07-04,488.007116
1965-07-05,421.006154
1965-07-06,468.006833
1965-07-07,383.005576
1965-07-08,611.008889
1965-07-09,391.005714
1965-07-10,472.006871
1965-07-11,410.005972
1965-07-12,387.005645
1965-07-13,387.005645
1965-07-14,387.005645
1965-07-15,383.005576
1965-07-16,865.012634
1965-07-17,441.006437
1965-07-18,380.005532
1965-07-19,657.009604
1965-07-20,441.006437
1965-07-21,410.005972
1965-07-22,425.006192
1965-07-23,421.006154
1965-07-24,410.005972
1965-07-25,433.00633
1965-07-26,417.006085
1965-07-27,414.006041
1965-07-28,410.005972
1965-07-29,406.005934
1965-07-30,998.014533
1965-07-31,545.007921
1965-08-01,406.005934
1965-08-02,414.006041
1965-08-03,652.00948
1965-08-04,452.006588
1965-08-05,1540.0225
1965-08-06,484.007047
1965-08-07,402.005865
1965-08-08,402.005865
1965-08-09,414.006041
1965-08-10,402.005865
1965-08-11,406.005934
1965-08-12,398.005796
1965-08-13,429.006261
1965-08-14,398.005796
1965-08-15,398.005796
1965-08-16,398.005796
1965-08-17,460.006695
1965-08-18,472.006871
1965-08-19,529.007707
1965-08-20,606.008826
1965-08-21,398.005796
1965-08-22,395.005752
1965-08-23,437.006368
1965-08-24,588.008562
1965-08-25,402.005865
1965-08-26,395.005752
1965-08-27,395.005752
1965-08-28,395.005752
1965-08-29,391.005714
1965-08-30,433.00633
1965-08-31,1120.01634
1965-09-01,579.00846
1965-09-02,421.006154
1965-09-03,496.007223
1965-09-04,387.005645
1965-09-05,383.005576
1965-09-06,387.005645
1965-09-07,433.00633
1965-09-08,376.005494
1965-09-09,383.005576
1965-09-10,383.005576
1965-09-11,584.008524
1965-09-12,383.005576
1965-09-13,395.005752
1965-09-14,383.005576
1965-09-15,380.005532
1965-09-16,380.005532
1965-09-17,875.01276
1965-09-18,1230.01798
1965-09-19,1220.01785
1965-09-20,1230.01798
1965-09-21,998.014533
1965-09-22,1340.01949
1965-09-23,1260.01836
1965-09-24,597.008724
1965-09-25,730.010624
1965-09-26,935.01364
1965-09-27,1230.01798
1965-09-28,1170.0171
1965-09-29,1340.01949
1965-09-30,1140.0166
1965-10-01,1330.01936
1965-10-02,487.007091
1965-10-03,536.00782
1965-10-04,485.007072
1965-10-05,988.014407
1965-10-06,804.011729
1965-10-07,810.011817
1965-10-08,1350.01974
1965-10-09,1580.02301
1965-10-10,1270.01848
1965-10-11,1720.02514
1965-10-12,1770.02577
1965-10-13,1600.02338
1965-10-14,1610.02351
1965-10-15,1790.02615
1965-10-16,1540.0225
1965-10-17,1880.02741
1965-10-18,1660.02426
1965-10-19,1800.02627
1965-10-20,1740.02539
1965-10-21,1850.02703
1965-10-22,1900.02766
1965-10-23,1880.02741
1965-10-24,2220.03243
1965-10-25,439.006418
1965-10-26,425.006192
1965-10-27,859.012546
1965-10-28,727.01061
1965-10-29,888.012961
1965-10-30,858.012521
1965-10-31,830.012131
1965-11-01,1260.01836
1965-11-02,1290.01886
1965-11-03,1270.01848
1965-11-04,1020.0149
1965-11-05,1290.01886
1965-11-06,1350.01974
1965-11-07,1250.01823
1965-11-08,1280.01873
1965-11-09,1300.01898
1965-11-10,1280.01873
1965-11-11,1280.01873
1965-11-12,1470.0215
1965-11-13,2250.03281
1965-11-14,2370.03457
1965-11-15,2320.03394
1965-11-16,1520.02213
1965-11-17,2550.03709
1965-11-18,2750.0401
1965-11-19,2750.0401
1965-11-20,2740.03998
1965-11-21,2740.03998
1965-11-22,2740.03998
1965-11-23,2750.0401
1965-11-24,2720.03973
1965-11-25,2580.03771
1965-11-26,2550.03709
1965-11-27,2580.03771
1965-11-28,2490.03633
1965-11-29,2550.03709
1965-11-30,2440.0357
1965-12-01,2600.03797
1965-12-02,2530.03684
1965-12-03,2430.03533
1965-12-04,2540.03696
1965-12-05,2380.0347
1965-12-06,2450.03583
1965-12-07,2510.03658
1965-12-08,2520.03671
1965-12-09,2530.03684
1965-12-10,2530.03684
1965-12-11,2320.03394
1965-12-12,725.010561
1965-12-13,2490.03633
1965-12-14,2500.03646
1965-12-15,2290.03332
1965-12-16,2330.03407
1965-12-17,2300.03344
1965-12-18,2300.03344
1965-12-19,2250.03281
1965-12-20,2270.03306
1965-12-21,2550.03709
1965-12-22,2000.02917
1965-12-23,849.012359
1965-12-24,695.010121
1965-12-25,799.011666
1965-12-26,671.009769
1965-12-27,898.013087
1965-12-28,764.011163
1965-12-29,767.011177
1965-12-30,773.011265
1965-12-31,753.011012
1966-01-01,1160.01697
1966-01-02,795.011567
1966-01-03,1170.0171
1966-01-04,1090.01584
1966-01-05,1180.01722
1966-01-06,1200.01748
1966-01-07,1200.01748
1966-01-08,1220.01785
1966-01-09,978.014281
1966-01-10,1250.01823
1966-01-11,1100.01609
1966-01-12,1230.01798
1966-01-13,1210.0176
1966-01-14,1190.01735
1966-01-15,1200.01748
1966-01-16,1030.01502
1966-01-17,1210.0176
1966-01-18,1200.01748
1966-01-19,1200.01748
1966-01-20,1280.01873
1966-01-21,1030.01502
1966-01-22,824.012043
1966-01-23,933.01359
1966-01-24,1340.01949
1966-01-25,1340.01949
1966-01-26,1320.01924
1966-01-27,1600.02338
1966-01-28,1280.01873
1966-01-29,1020.0149
1966-01-30,829.012106
1966-01-31,1460.02125
1966-02-01,1300.01898
1966-02-02,1320.01924
1966-02-03,1270.01848
1966-02-04,1330.01936
1966-02-05,1360.01986
1966-02-06,1260.01836
1966-02-07,1320.01924
1966-02-08,1340.01949
1966-02-09,1520.02213
1966-02-10,1290.01886
1966-02-11,1500.02188
1966-02-12,1270.01848
1966-02-13,761.011089
1966-02-14,1510.022
1966-02-15,991.014482
1966-02-16,1130.01647
1966-02-17,1320.01924
1966-02-18,1400.02037
1966-02-19,1680.02451
1966-02-20,769.011226
1966-02-21,1560.02275
1966-02-22,680.009931
1966-02-23,1450.02112
1966-02-24,1500.02188
1966-02-25,1290.01886
1966-02-26,1590.02313
1966-02-27,1090.01584
1966-02-28,1410.02062
1966-03-01,1310.01911
1966-03-02,1340.01949
1966-03-03,1360.01986
1966-03-04,1320.01924
1966-03-05,1270.01848
1966-03-06,1280.01873
1966-03-07,1310.01911
1966-03-08,1430.02087
1966-03-09,1430.02087
1966-03-10,1430.02087
1966-03-11,1290.01886
1966-03-12,1420.02074
1966-03-13,1220.01785
1966-03-14,1460.02125
1966-03-15,1530.02238
1966-03-16,1490.02175
1966-03-17,1600.02338
1966-03-18,1160.01697
1966-03-19,662.009667
1966-03-20,492.007185
1966-03-21,775.011314
1966-03-22,1120.01634
1966-03-23,854.012483
1966-03-24,985.014394
1966-03-25,1030.01502
1966-03-26,530.007732
1966-03-27,510.007449
1966-03-28,959.013992
1966-03-29,913.013338
1966-03-30,1080.01572
1966-03-31,1150.01672
1966-04-01,1070.01559
1966-04-02,839.012232
1966-04-03,1930.02816
1966-04-04,2370.03457
1966-04-05,2750.0401
1966-04-06,2480.03621
1966-04-07,2320.03394
1966-04-08,2520.03671
1966-04-09,2190.03206
1966-04-10,1640.02389
1966-04-11,2520.03671
1966-04-12,2690.03935
1966-04-13,2270.03306
1966-04-14,2250.03281
1966-04-15,2270.03306
1966-04-16,2260.03294
1966-04-17,741.010836
1966-04-18,2390.03482
1966-04-19,2340.03419
1966-04-20,2450.03583
1966-04-21,2300.03344
1966-04-22,2450.03583
1966-04-23,2570.03759
1966-04-24,2260.03294
1966-04-25,2160.03143
1966-04-26,2330.03407
1966-04-27,2370.03457
1966-04-28,2450.03583
1966-04-29,2480.03621
1966-04-30,1870.02728
1966-05-01,1130.01647
1966-05-02,2280.03319
1966-05-03,2140.03118
1966-05-04,1700.02477
1966-05-05,1640.02389
1966-05-06,1060.01546
1966-05-07,685.009995
1966-05-08,464.006764
1966-05-09,861.012535
1966-05-10,1130.01647
1966-05-11,2050.02992
1966-05-12,1590.02313
1966-05-13,1410.02062
1966-05-14,473.006896
1966-05-15,488.007116
1966-05-16,2000.02917
1966-05-17,2200.03218
1966-05-18,1160.01697
1966-05-19,1670.02439
1966-05-20,1910.02791
1966-05-21,976.014231
1966-05-22,523.007619
1966-05-23,1670.02439
1966-05-24,1920.02803
1966-05-25,933.01359
1966-05-26,659.009593
1966-05-27,1050.01534
1966-05-28,1680.02451
1966-05-29,1650.02401
1966-05-30,1380.02012
1966-05-31,1420.02074
1966-06-01,1550.02263
1966-06-02,1150.01672
1966-06-03,1840.02678
1966-06-04,1930.02816
1966-06-05,1320.01924
1966-06-06,1580.02301
1966-06-07,1750.02552
1966-06-08,1610.02351
1966-06-09,1300.01898
1966-06-10,1580.02301
1966-06-11,1050.01534
1966-06-12,1410.02062
1966-06-13,1540.0225
1966-06-14,1690.02464
1966-06-15,1760.02565
1966-06-16,1790.02615
1966-06-17,1970.02879
1966-06-18,1450.02112
1966-06-19,1310.01911
1966-06-20,1470.0215
1966-06-21,1280.01873
1966-06-22,1610.02351
1966-06-23,1670.02439
1966-06-24,1640.02389
1966-06-25,1690.02464
1966-06-26,1640.02389
1966-06-27,1670.02439
1966-06-28,1880.02741
1966-06-29,1770.02577
1966-06-30,1800.02627
1966-07-01,1720.02514
1966-07-02,1730.02527
1966-07-03,1570.02288
1966-07-04,1770.02577
1966-07-05,1590.02313
1966-07-06,1710.02489
1966-07-07,1690.02464
1966-07-08,1560.02275
1966-07-09,1600.02338
1966-07-10,1600.02338
1966-07-11,1690.02464
1966-07-12,1550.02263
1966-07-13,1620.02363
1966-07-14,1790.02615
1966-07-15,1680.02451
1966-07-16,1580.02301
1966-07-17,1680.02451
1966-07-18,1900.02766
1966-07-19,1730.02527
1966-07-20,1810.0264
1966-07-21,1840.02678
1966-07-22,1890.02753
1966-07-23,1710.02489
1966-07-24,1590.02313
1966-07-25,1780.02602
1966-07-26,1630.02376
1966-07-27,1800.02627
1966-07-28,1660.02426
1966-07-29,1820.02653
1966-07-30,1640.02389
1966-07-31,1670.02439
1966-08-01,1730.02527
1966-08-02,1570.02288
1966-08-03,1730.02527
1966-08-04,1820.02653
1966-08-05,1810.0264
1966-08-06,1850.02703
1966-08-07,1570.02288
1966-08-08,1750.02552
1966-08-09,1860.02715
1966-08-10,2130.03105
1966-08-11,1950.02841
1966-08-12,2180.03168
1966-08-13,2130.03105
1966-08-14,1920.02803
1966-08-15,1800.02627
1966-08-16,1790.02615
1966-08-17,2100.03067
1966-08-18,2120.03093
1966-08-19,2210.03231
1966-08-20,2000.02917
1966-08-21,1790.02615
1966-08-22,2190.03206
1966-08-23,1960.02854
1966-08-24,2380.0347
1966-08-25,2320.03394
1966-08-26,1800.02627
1966-08-27,1710.02489
1966-08-28,1370.01999
1966-08-29,2140.03118
1966-08-30,2120.03093
1966-08-31,1740.02539
1966-09-01,1740.02539
1966-09-02,1750.02552
1966-09-03,1720.02514
1966-09-04,1670.02439
1966-09-05,1750.02552
1966-09-06,2020.02942
1966-09-07,1740.02539
1966-09-08,1930.02816
1966-09-09,2250.03281
1966-09-10,2210.03231
1966-09-11,2020.02942
1966-09-12,1870.02728
1966-09-13,2120.03093
1966-09-14,2140.03118
1966-09-15,2280.03319
1966-09-16,2240.03269
1966-09-17,2340.03419
1966-09-18,2250.03281
1966-09-19,2930.04262
1966-09-20,2660.03872
1966-09-21,2550.03709
1966-09-22,2380.0347
1966-09-23,2490.03633
1966-09-24,2370.03457
1966-09-25,850.012384
1966-09-26,2400.03495
1966-09-27,1260.01836
1966-09-28,2500.03646